SCP
-0 -0 -0 0 -0 -0 0 0 0 -0 -0 -0 -0 0 -0 -0 -0 -0 -0 -0 -0 -0 -0 -0 -0 -0 -0 0 0 0 0 0 0 -0 -0 -0 0 -0 0 0 0 -0 -0
0 0 0 -0 0 -0 -0 -0 -0 -0 -0 -0 -0 0 0 0 -0 -0 -0 -0 -0 -0 -0 -0 -0 -0 -0 -0 0 0 0 -0 -0 -0 0 -0 -0 -0 -0 -0 -0 -0 -0
-0 0 0 0 0 -0 -0 -0 0 -0 -0 -0 -0 -0 0 0 0 -0 -0 -0 -0 -0 -0 -0 -0 -0 -0 -0 -0 0 -0 0 0 -0 0 0 -0 -0 -0 -0 -0 -0 -0
-0 -0 0 -0 -0 -0 -0 -0 -0 -0 -0 -0 -0 0 0 0 0 -0 -0 -0 -0 -0 -0 -0 -0 -0 -0 0 0 -0 0 0 0 0 0 -0 0 0 -0 -0 -0 0 0
0 0 0 0 0 0 0 -0 -0 -0 -0 0 -0 0 0 0 -0 -0 -0 -0 -0 -0 -0 -0 -0 -0 0 0 0 -0 0 0 0 -0 -0 -0 0 0 -0 -0 0 -0 -0
-0 -0 0 0 0 0 -0 -0 -0 -0 -0 -0 0 0 0 -0 -0 -0 -0 -0 -0 -0 -0 -0 -0 -0 -0 -0 -0 -0 0 0 0 -0 -0 -0 -0 -0 -0 -0 -0 -0 -0
-0 0 -0 -0 -0 -0 0 -0 0 0 -0 -0 -0 -0 -0 -0 -0 -0 -0 -0 -0 -0 -0 -0 0 -0 -0 0 -0 0 0 0 -0 0 -0 -0 -0 -0 -0 -0 -0 -0 -0
-0 -0 -0 0 -0 -0 -0 -0 -0 -0 -0 -0 -0 -0 -0 -0 -0 -0 -0 0 -0 -0 -0 -0 -0 -0 -0 0 -0 -0 -0 0 -0 0 -0 -0 0 -0 -0 -0 -0 -0 -0
-0 -0 0 -0 -0 -0 -0 -0 -0 -0 -0 -0 -0 -0 -0 0 -0 -0 -0 0 0 -0 -0 -0 -0 -0 -0 -0 -0 -0 0 0 -0 0 -0 0 0 -0 -0 -0 -0 -0 0
-0 -0 0 -0 -0 -0 -0 -0 -0 -0 -0 -0 0 0 -0 -0 -0 -0 0 0 0 -0 -0 -0 -0 -0 -0 -0 -0 0 0 0 -0 -0 -0 0 -0 -0 -0 0 -0 0 0
0 -0 -0 -0 -0 -0 -0 -0 -0 -0 -0 -0 -0 -0 -0 -0 -0 -0 -0 0 0 0 -0 0 0 -0 -0 -0 -0 0 0 0 0 -0 0 0 0 0 0 0 0 0 0
-0 -0 -0 -0 -0 -0 -0 -0 -0 -0 0 0 0 0 0 0 -0 -0 0 0 -0 -0 -0 0 0 -0 -0 0 0 0 0 0 0 -0 0 0 0 0 0 0 0 0 0
0 0 -1 -0 -0 -0 0 0 0 -0 0 0 0 0 0 -0 0 -0 0 0 0 0 0 0 0 0 0 0 0 0 0 0 0 0 0 0 0 0 0 0 0 0 0
0 0 -0 -0 0 0 0 0 -0 0 0 0 0 0 0 -0 0 0 0 0 0 -0 0 0 0 0 -0 0 0 0 0 0 0 -0 0 0 0 0 0 0 0 0 0
0 -0 -0 -0 -0 0 0 0 0 0 0 0 0 0 0 -0 0 0 0 0 0 0 0 0 0 0 0 0 0 0 0 0 0 -0 0 0 0 0 0 0 0 0 0
0 -0 -0 -0 0 0 0 0 -0 0 0 0 0 0 0 -0 0 0 0 0 0 0 0 0 0 0 0 0 0 0 0 0 0 0 0 0 0 0 0 0 0 0 0
0 -0 -0 -0 -0 -0 0 0 0 0 -0 0 0 0 0 0 0 0 0 0 0 0 0 0 0 0 -0 0 0 0 0 0 0 0 0 0 0 0 0 0 0 0 0
-0 -0 -0 -0 -0 -0 0 0 0 -0 -0 0 0 0 0 0 0 0 0 0 0 0 0 0 0 0 0 -0 0 -0 0 0 0 0 0 0 0 0 0 0 0 0 1
-0 -0 0 -0 -0 -0 -0 0 0 0 0 0 0 0 0 0 0 0 0 -0 0 0 0 0 0 0 0 -0 0 0 0 0 0 -0 0 0 0 0 0 0 0 0 0
-0 0 -0 -0 -0 -0 -0 0 0 0 0 0 0 -0 -0 0 0 0 -0 -0 0 0 0 0 0 0 0 0 0 0 0 0 0 0 0 0 0 0 0 0 0 1 0
0 0 0 0 -0 0 -0 0 0 0 -0 0 0 -0 0 0 0 0 0 0 0 0 0 0 0 0 0 0 0 0 0 0 0 0 0 0 -0 0 0 0 0 0 0
0 0 0 0 -0 0 -0 0 0 0 0 0 -0 0 0 0 0 0 0 0 0 -0 -0 -0 -0 0 0 0 0 0 0 0 0 0 -0 0 0 0 0 0 0 0 0
0 0 0 0 -0 -0 0 0 0 0 -0 -0 -0 -0 0 0 0 0 0 0 -0 -0 0 0 0 0 0 0 0 0 0 0 -0 -0 0 0 0 0 0 0 0 0 0
0 0 0 0 -0 -0 0 0 0 0 0 0 -0 -0 -0 0 0 0 0 0 0 -0 -0 -0 0 0 0 0 0 0 0 0 0 -0 -0 0 0 0 0 0 -0 0 0
0 0 0 0 0 0 -0 0 0 0 0 0 0 -0 0 -0 0 -0 0 0 0 0 -0 -0 0 0 0 0 0 0 0 0 0 0 -0 -0 -0 -0 -0 0 0 -0 0
0 0 0 0 0 0 0 0 0 0 0 0 -0 0 -0 -0 -0 -0 -0 -0 0 0 0 0 0 0 0 0 0 0 0 0 0 0 0 0 0 -0 -0 -0 -0 -0 -0
Wind_Speed_500mb
37 38 37 35 34 34 34 28 23 22 19 18 17 17 19 20 21 23 24 25 27 27 28 30 31 31 33 36 40 39 41 44 41 39 43 43 42 43 41 47 35 36 38
44 40 40 36 34 32 30 27 23 20 18 16 15 14 14 14 17 18 20 21 25 27 29 29 31 30 31 35 36 39 43 49 52 42 41 41 38 39 35 28 36 37 35
44 41 38 37 34 30 27 24 21 20 16 16 15 14 14 13 13 16 19 20 20 23 26 28 31 32 33 33 32 38 46 55 45 41 42 35 41 38 36 37 38 36 35
44 39 34 35 31 25 20 19 19 18 18 17 16 17 17 16 16 17 18 20 20 23 27 28 31 32 31 31 33 40 40 43 39 31 31 30 31 37 37 34 35 37 34
43 37 35 33 30 23 21 20 17 18 18 19 17 17 19 18 18 18 19 18 19 23 27 27 29 33 32 30 35 39 44 46 41 26 30 33 28 31 38 35 31 30 29
41 33 38 31 25 22 22 19 18 18 19 19 19 19 19 18 20 19 19 19 21 23 26 26 27 26 32 32 36 45 48 38 36 31 29 22 30 33 32 27 30 31 31
40 30 32 27 22 20 18 19 19 18 19 19 21 18 20 20 21 21 21 21 22 24 29 27 25 26 29 30 33 35 46 41 29 33 25 28 35 33 29 28 28 31 30
34 29 25 26 20 19 18 17 19 18 18 19 19 19 21 23 24 26 22 23 25 27 26 26 27 28 24 28 31 35 49 37 22 20 25 29 31 30 28 27 28 27 28
32 31 24 20 20 20 16 20 19 18 16 16 20 19 22 22 23 26 23 24 30 29 27 26 28 27 25 27 33 40 42 36 24 28 26 24 27 28 27 27 28 27 25
34 27 27 19 18 19 18 20 19 16 17 16 21 22 26 25 25 31 25 28 30 28 28 28 28 25 28 32 37 40 40 35 22 22 23 26 27 25 24 25 24 23 24
31 30 29 22 20 22 16 18 19 17 15 19 21 26 31 19 25 24 22 29 30 29 28 29 30 34 33 32 36 36 32 16 26 21 19 23 23 22 22 22 21 21 21
33 31 25 30 21 21 25 21 17 9 18 24 15 28 21 19 30 19 24 28 29 28 32 38 38 36 26 21 26 28 23 17 17 18 15 21 18 18 19 19 19 19 19
33 29 29 22 24 25 20 18 16 24 17 18 22 27 22 21 19 21 24 23 28 29 21 20 24 25 13 14 15 14 16 13 17 14 12 14 16 17 16 16 15 16 17
33 28 24 24 31 25 20 22 22 15 18 19 17 18 23 17 20 18 18 18 17 15 18 14 18 20 19 16 15 15 15 14 16 9 7 10 14 14 14 13 14 13 13
33 29 25 24 27 30 22 19 24 17 20 14 20 15 12 13 16 17 18 17 16 16 14 15 12 14 14 13 14 15 13 16 14 11 7 12 12 13 12 13 12 12 12
33 30 27 23 22 31 17 19 19 17 20 19 17 18 18 13 13 15 17 17 16 13 13 11 15 10 15 11 14 13 14 12 12 12 5 15 15 15 16 16 15 14 13
34 31 28 27 23 22 16 23 16 15 17 19 10 12 14 12 18 15 17 14 13 15 16 14 17 12 11 11 12 12 10 13 10 11 10 7 14 19 18 18 17 16 16
34 32 30 27 25 23 21 22 17 14 12 14 12 10 11 11 15 16 13 13 12 12 11 11 14 9 11 12 12 12 11 9 8 8 7 6 5 8 16 17 15 17 16
34 33 31 29 28 25 24 20 19 19 11 14 12 7 11 10 12 14 13 10 17 12 12 11 8 19 9 11 12 11 9 7 5 8 5 6 5 9 3 14 15 21 18
33 33 31 30 30 29 26 21 18 15 10 16 12 6 7 11 9 17 13 15 21 13 13 15 13 9 8 5 14 11 6 5 5 4 2 3 0 3 3 4 11 16 21
35 34 33 32 31 30 24 23 20 16 15 15 14 12 12 10 8 14 20 21 17 17 18 16 14 15 10 3 8 9 9 7 3 4 1 2 1 2 3 3 8 2 15
37 35 37 35 32 31 24 24 18 22 18 13 16 10 14 12 11 10 18 11 21 16 14 17 16 10 11 3 8 6 6 7 8 1 2 3 4 1 1 4 3 4 4
37 39 40 39 36 35 26 22 22 17 16 12 15 9 16 14 12 11 19 19 21 18 15 14 17 10 11 3 4 7 3 12 12 5 1 3 2 1 2 4 1 3 2
36 39 39 38 38 36 33 23 20 17 16 19 16 20 11 16 15 16 15 12 19 13 26 18 15 12 16 9 2 3 8 6 12 11 7 4 7 4 1 1 3 4 1
36 38 40 40 39 37 37 29 16 21 17 18 14 17 15 16 17 17 17 13 18 13 21 17 18 17 12 8 9 5 2 3 9 16 16 8 8 4 3 4 2 2 2
42 40 39 40 39 41 36 39 31 20 15 15 13 12 14 14 13 14 16 19 18 10 24 20 20 23 16 15 6 9 5 3 6 3 3 4 5 4 2 3 2 1 1
Wind_Direction_500mb
144 144 135 133 131 128 126 127 119 113 109 105 100 95 93 91 89 88 87 88 82 84 80 81 78 77 81 81 81 86 82 83 81 86 87 91 95 88 90 78 73 77 77
147 142 134 133 131 126 122 118 112 107 103 99 97 96 97 95 91 93 93 91 85 81 83 84 83 83 81 83 82 83 83 78 82 79 72 82 93 88 90 91 82 77 73
144 142 134 133 129 125 119 110 106 105 100 92 90 90 93 98 98 99 101 90 88 90 83 85 85 87 83 82 81 85 91 86 87 88 73 77 84 88 82 80 77 72 77
143 135 136 130 126 121 118 106 102 102 99 94 88 86 90 83 95 109 107 98 99 95 89 92 89 82 86 85 84 94 94 88 80 81 78 86 78 81 75 73 74 71 62
138 142 143 127 126 119 117 109 99 100 95 96 95 88 93 96 91 111 115 119 108 99 99 102 89 84 78 85 90 93 94 83 83 90 100 80 81 79 77 75 65 77 72
141 149 143 132 124 118 114 108 98 94 95 93 88 91 91 90 95 96 113 111 108 104 103 99 90 90 80 88 92 98 96 91 80 90 86 97 92 83 82 78 75 70 65
143 148 150 143 128 122 117 108 104 97 97 93 93 90 91 96 94 97 105 111 110 109 106 96 96 94 85 90 96 98 95 92 90 82 83 81 85 80 77 72 67 70 66
143 143 151 147 139 129 119 111 108 106 101 101 95 93 94 94 91 89 95 107 110 109 107 98 94 100 89 86 97 101 98 94 71 101 85 87 82 77 74 71 68 68 67
143 144 145 146 142 133 125 122 122 116 109 102 98 95 95 98 93 99 96 108 113 109 103 101 99 97 88 91 93 99 97 93 90 94 80 81 82 74 74 73 69 71 69
144 148 142 143 136 122 113 122 120 115 110 105 102 97 92 90 91 87 83 112 113 107 101 101 100 90 83 92 96 91 86 88 104 87 84 87 84 75 76 80 74 64 65
148 146 150 137 152 140 121 119 114 103 101 104 101 100 88 99 75 86 127 116 114 104 96 98 91 81 75 82 90 88 82 93 96 84 87 90 87 74 77 77 72 68 68
149 150 145 152 135 153 122 106 98 95 91 106 125 97 106 104 122 106 109 117 109 100 97 90 79 68 68 67 69 71 83 95 87 86 92 92 85 76 79 78 75 69 67
153 150 154 154 130 137 125 140 116 91 101 108 118 111 114 110 116 108 92 102 103 91 93 79 94 80 80 89 85 100 108 101 108 98 95 94 84 82 79 78 72 63 59
156 149 140 140 158 123 131 140 115 128 114 113 132 118 123 102 103 114 118 129 124 115 127 108 77 110 85 86 94 94 101 105 100 97 67 84 85 85 83 77 70 65 60
160 156 156 155 147 146 141 134 142 123 123 123 110 129 109 135 121 113 127 127 125 116 110 100 105 104 101 94 96 96 107 109 106 94 52 68 72 73 73 67 62 57 50
163 161 163 161 152 151 150 146 139 151 121 120 135 126 121 128 131 130 124 125 131 123 122 109 114 116 92 92 93 100 109 109 127 100 30 42 62 60 57 55 49 45 40
165 165 165 159 159 156 153 142 133 109 148 131 144 149 145 136 142 144 134 138 131 168 136 96 106 120 110 103 96 103 98 105 96 102 102 344 11 38 50 48 46 44 42
165 169 167 162 166 162 161 147 139 172 171 128 110 113 134 148 155 152 166 139 171 124 139 135 124 89 116 109 98 101 106 102 102 98 83 88 111 306 358 24 33 37 32
170 170 170 166 167 164 165 149 151 178 150 174 108 183 163 147 150 146 156 172 134 158 148 148 130 111 118 126 128 112 116 113 106 93 58 103 44 85 322 353 30 28 23
174 172 171 168 170 165 166 162 159 166 189 131 130 170 118 144 165 139 158 158 134 153 153 158 128 154 135 121 140 115 119 125 139 90 128 124 222 99 129 348 5 350 12
179 175 173 171 175 166 172 170 172 177 175 169 165 191 178 159 176 138 126 142 133 159 172 143 134 129 130 136 142 147 153 164 107 196 91 123 350 76 279 331 52 350 327
183 180 177 177 181 170 173 174 180 186 180 193 225 183 159 167 182 173 137 148 144 170 162 167 185 169 134 141 124 161 208 180 176 78 202 229 215 180 310 342 302 325 100
187 187 185 182 183 172 181 186 190 189 141 168 197 189 171 177 181 182 161 184 174 165 174 167 161 174 166 159 115 346 11 250 150 126 88 165 198 138 168 306 54 283 269
188 190 188 186 185 186 178 189 208 179 187 180 179 178 175 174 177 186 189 195 178 195 183 171 193 205 155 160 169 339 3 352 351 120 125 140 161 133 132 172 286 266 209
185 187 189 187 189 190 190 174 205 204 224 155 185 175 168 199 175 185 189 190 177 152 185 175 205 181 201 233 184 155 86 27 324 357 116 106 111 119 116 82 186 173 8
186 185 189 191 196 191 199 194 188 205 216 197 204 174 186 184 174 188 197 195 191 188 182 186 202 185 202 193 217 185 248 32 230 281 31 95 94 111 102 102 95 176 303
Wind_Speed_850mb
37 38 37 35 34 34 34 28 23 22 19 18 17 17 19 20 21 23 24 25 27 27 28 30 31 31 33 36 40 39 41 44 41 39 43 43 42 43 41 47 35 36 38
44 40 40 36 34 32 30 27 23 20 18 16 15 14 14 14 17 18 20 21 25 27 29 29 31 30 31 35 36 39 43 49 52 42 41 41 38 39 35 28 36 37 35
44 41 38 37 34 30 27 24 21 20 16 16 15 14 14 13 13 16 19 20 20 23 26 28 31 32 33 33 32 38 46 55 45 41 42 35 41 38 36 37 38 36 35
44 39 34 35 31 25 20 19 19 18 18 17 16 17 17 16 16 17 18 20 20 23 27 28 31 32 31 31 33 40 40 43 39 31 31 30 31 37 37 34 35 37 34
43 37 35 33 30 23 21 20 17 18 18 19 17 17 19 18 18 18 19 18 19 23 27 27 29 33 32 30 35 39 44 46 41 26 30 33 28 31 38 35 31 30 29
41 33 38 31 25 22 22 19 18 18 19 19 19 19 19 18 20 19 19 19 21 23 26 26 27 26 32 32 36 45 48 38 36 31 29 22 30 33 32 27 30 31 31
40 30 32 27 22 20 18 19 19 18 19 19 21 18 20 20 21 21 21 21 22 24 29 27 25 26 29 30 33 35 46 41 29 33 25 28 35 33 29 28 28 31 30
34 29 25 26 20 19 18 17 19 18 18 19 19 19 21 23 24 26 22 23 25 27 26 26 27 28 24 28 31 35 49 37 22 20 25 29 31 30 28 27 28 27 28
32 31 24 20 20 20 16 20 19 18 16 16 20 19 22 22 23 26 23 24 30 29 27 26 28 27 25 27 33 40 42 36 24 28 26 24 27 28 27 27 28 27 25
34 27 27 19 18 19 18 20 19 16 17 16 21 22 26 25 25 31 25 28 30 28 28 28 28 25 28 32 37 40 40 35 22 22 23 26 27 25 24 25 24 23 24
31 30 29 22 20 22 16 18 19 17 15 19 21 26 31 19 25 24 22 29 30 29 28 29 30 34 33 32 36 36 32 16 26 21 19 23 23 22 22 22 21 21 21
33 31 25 30 21 21 25 21 17 9 18 24 15 28 21 19 30 19 24 28 29 28 32 38 38 36 26 21 26 28 23 17 17 18 15 21 18 18 19 19 19 19 19
33 29 29 22 24 25 20 18 16 24 17 18 22 27 22 21 19 21 24 23 28 29 21 20 24 25 13 14 15 14 16 13 17 14 12 14 16 17 16 16 15 16 17
33 28 24 24 31 25 20 22 22 15 18 19 17 18 23 17 20 18 18 18 17 15 18 14 18 20 19 16 15 15 15 14 16 9 7 10 14 14 14 13 14 13 13
33 29 25 24 27 30 22 19 24 17 20 14 20 15 12 13 16 17 18 17 16 16 14 15 12 14 14 13 14 15 13 16 14 11 7 12 12 13 12 13 12 12 12
33 30 27 23 22 31 17 19 19 17 20 19 17 18 18 13 13 15 17 17 16 13 13 11 15 10 15 11 14 13 14 12 12 12 5 15 15 15 16 16 15 14 13
34 31 28 27 23 22 16 23 16 15 17 19 10 12 14 12 18 15 17 14 13 15 16 14 17 12 11 11 12 12 10 13 10 11 10 7 14 19 18 18 17 16 16
34 32 30 27 25 23 21 22 17 14 12 14 12 10 11 11 15 16 13 13 12 12 11 11 14 9 11 12 12 12 11 9 8 8 7 6 5 8 16 17 15 17 16
34 33 31 29 28 25 24 20 19 19 11 14 12 7 11 10 12 14 13 10 17 12 12 11 8 19 9 11 12 11 9 7 5 8 5 6 5 9 3 14 15 21 18
33 33 31 30 30 29 26 21 18 15 10 16 12 6 7 11 9 17 13 15 21 13 13 15 13 9 8 5 14 11 6 5 5 4 2 3 0 3 3 4 11 16 21
35 34 33 32 31 30 24 23 20 16 15 15 14 12 12 10 8 14 20 21 17 17 18 16 14 15 10 3 8 9 9 7 3 4 1 2 1 2 3 3 8 2 15
37 35 37 35 32 31 24 24 18 22 18 13 16 10 14 12 11 10 18 11 21 16 14 17 16 10 11 3 8 6 6 7 8 1 2 3 4 1 1 4 3 4 4
37 39 40 39 36 35 26 22 22 17 16 12 15 9 16 14 12 11 19 19 21 18 15 14 17 10 11 3 4 7 3 12 12 5 1 3 2 1 2 4 1 3 2
36 39 39 38 38 36 33 23 20 17 16 19 16 20 11 16 15 16 15 12 19 13 26 18 15 12 16 9 2 3 8 6 12 11 7 4 7 4 1 1 3 4 1
36 38 40 40 39 37 37 29 16 21 17 18 14 17 15 16 17 17 17 13 18 13 21 17 18 17 12 8 9 5 2 3 9 16 16 8 8 4 3 4 2 2 2
42 40 39 40 39 41 36 39 31 20 15 15 13 12 14 14 13 14 16 19 18 10 24 20 20 23 16 15 6 9 5 3 6 3 3 4 5 4 2 3 2 1 1
Wind_Direction_850mb
144 144 135 133 131 128 126 127 119 113 109 105 100 95 93 91 89 88 87 88 82 84 80 81 78 77 81 81 81 86 82 83 81 86 87 91 95 88 90 78 73 77 77
147 142 134 133 131 126 122 118 112 107 103 99 97 96 97 95 91 93 93 91 85 81 83 84 83 83 81 83 82 83 83 78 82 79 72 82 93 88 90 91 82 77 73
144 142 134 133 129 125 119 110 106 105 100 92 90 90 93 98 98 99 101 90 88 90 83 85 85 87 83 82 81 85 91 86 87 88 73 77 84 88 82 80 77 72 77
143 135 136 130 126 121 118 106 102 102 99 94 88 86 90 83 95 109 107 98 99 95 89 92 89 82 86 85 84 94 94 88 80 81 78 86 78 81 75 73 74 71 62
138 142 143 127 126 119 117 109 99 100 95 96 95 88 93 96 91 111 115 119 108 99 99 102 89 84 78 85 90 93 94 83 83 90 100 80 81 79 77 75 65 77 72
141 149 143 132 124 118 114 108 98 94 95 93 88 91 91 90 95 96 113 111 108 104 103 99 90 90 80 88 92 98 96 91 80 90 86 97 92 83 82 78 75 70 65
143 148 150 143 128 122 117 108 104 97 97 93 93 90 91 96 94 97 105 111 110 109 106 96 96 94 85 90 96 98 95 92 90 82 83 81 85 80 77 72 67 70 66
143 143 151 147 139 129 119 111 108 106 101 101 95 93 94 94 91 89 95 107 110 109 107 98 94 100 89 86 97 101 98 94 71 101 85 87 82 77 74 71 68 68 67
143 144 145 146 142 133 125 122 122 116 109 102 98 95 95 98 93 99 96 108 113 109 103 101 99 97 88 91 93 99 97 93 90 94 80 81 82 74 74 73 69 71 69
144 148 142 143 136 122 113 122 120 115 110 105 102 97 92 90 91 87 83 112 113 107 101 101 100 90 83 92 96 91 86 88 104 87 84 87 84 75 76 80 74 64 65
148 146 150 137 152 140 121 119 114 103 101 104 101 100 88 99 75 86 127 116 114 104 96 98 91 81 75 82 90 88 82 93 96 84 87 90 87 74 77 77 72 68 68
149 150 145 152 135 153 122 106 98 95 91 106 125 97 106 104 122 106 109 117 109 100 97 90 79 68 68 67 69 71 83 95 87 86 92 92 85 76 79 78 75 69 67
153 150 154 154 130 137 125 140 116 91 101 108 118 111 114 110 116 108 92 102 103 91 93 79 94 80 80 89 85 100 108 101 108 98 95 94 84 82 79 78 72 63 59
156 149 140 140 158 123 131 140 115 128 114 113 132 118 123 102 103 114 118 129 124 115 127 108 77 110 85 86 94 94 101 105 100 97 67 84 85 85 83 77 70 65 60
160 156 156 155 147 146 141 134 142 123 123 123 110 129 109 135 121 113 127 127 125 116 110 100 105 104 101 94 96 96 107 109 106 94 52 68 72 73 73 67 62 57 50
163 161 163 161 152 151 150 146 139 151 121 120 135 126 121 128 131 130 124 125 131 123 122 109 114 116 92 92 93 100 109 109 127 100 30 42 62 60 57 55 49 45 40
165 165 165 159 159 156 153 142 133 109 148 131 144 149 145 136 142 144 134 138 131 168 136 96 106 120 110 103 96 103 98 105 96 102 102 344 11 38 50 48 46 44 42
165 169 167 162 166 162 161 147 139 172 171 128 110 113 134 148 155 152 166 139 171 124 139 135 124 89 116 109 98 101 106 102 102 98 83 88 111 306 358 24 33 37 32
170 170 170 166 167 164 165 149 151 178 150 174 108 183 163 147 150 146 156 172 134 158 148 148 130 111 118 126 128 112 116 113 106 93 58 103 44 85 322 353 30 28 23
174 172 171 168 170 165 166 162 159 166 189 131 130 170 118 144 165 139 158 158 134 153 153 158 128 154 135 121 140 115 119 125 139 90 128 124 222 99 129 348 5 350 12
179 175 173 171 175 166 172 170 172 177 175 169 165 191 178 159 176 138 126 142 133 159 172 143 134 129 130 136 142 147 153 164 107 196 91 123 350 76 279 331 52 350 327
183 180 177 177 181 170 173 174 180 186 180 193 225 183 159 167 182 173 137 148 144 170 162 167 185 169 134 141 124 161 208 180 176 78 202 229 215 180 310 342 302 325 100
187 187 185 182 183 172 181 186 190 189 141 168 197 189 171 177 181 182 161 184 174 165 174 167 161 174 166 159 115 346 11 250 150 126 88 165 198 138 168 306 54 283 269
188 190 188 186 185 186 178 189 208 179 187 180 179 178 175 174 177 186 189 195 178 195 183 171 193 205 155 160 169 339 3 352 351 120 125 140 161 133 132 172 286 266 209
185 187 189 187 189 190 190 174 205 204 224 155 185 175 168 199 175 185 189 190 177 152 185 175 205 181 201 233 184 155 86 27 324 357 116 106 111 119 116 82 186 173 8
186 185 189 191 196 191 199 194 188 205 216 197 204 174 186 184 174 188 197 195 191 188 182 186 202 185 202 193 217 185 248 32 230 281 31 95 94 111 102 102 95 176 303